Flag for Germany Weather past 2 weeks in Wismar, Mecklenburg-Western Pomerania, Germany

Now
61 °F

Overcast.


Feels Like: 61 °F
Forecast: 45 / 57 °F
Wind: 5 mph from Southwest

Location: Schwerin

Current Time: Apr 25, 2015 at 2:58:21 PM

Latest Report: Apr 25, 2015 at 2:00 PM


Visibility: 8 mi

Pressure: 29.72 "Hg

Humidity: 67%

Dew point: 50 °F

Location of WismarLocation

Historic Weather in Wismar — Graph

°F

Wismar temperature yesterday

Maximum temperature yesterday: 65 °F (at 6:00 PM)
Minimum temperature yesterday: 42 °F (at 6:00 AM)
Average temperature yesterday: 52 °F

Past Weeks' High & Low Weather Summary

 TemperatureHumidityPressure
High69 °F (Apr 15, 4:00 PM)100% (Apr 24, 4:00 AM)30.38 "Hg (Apr 24, 4:00 AM)
Low33 °F (Apr 14, 7:00 AM)29% (Apr 15, 4:00 PM)29.72 "Hg (Apr 25, 1:00 PM)
Average50 °F67%30.13 "Hg
* Reported Apr 10 1:00 PM — Apr 25 1:00 PM, Wismar, Weather by CustomWeather, © 2015

Note: Actual official high and low records may vary slightly from our data, if they occured in-between our weather recording intervals... More about our weather records

Advertising

Wismar weather history for previous 24 hours

 ConditionsComfort  
Time TempWeatherWind HumidityBarometerVisibility
1:00 PM
Sat, Apr 25
62 °FPartly sunny.3 mph64%29.72 "Hg7 mi
12:00 PM59 °FPassing clouds.3 mph68%29.73 "Hg6 mi
10:00 AM57 °FPassing clouds.7 mph60%29.75 "Hg4 mi
9:00 AM55 °FOvercast.6 mph62%29.74 "Hg4 mi
8:00 AM53 °FOvercast.5 mph61%29.73 "Hg4 mi
7:00 AM52 °FOvercast.3 mph63%29.73 "Hg4 mi
6:00 AM52 °FScattered clouds.3 mph62%29.73 "Hg3 mi
3:00 AM51 °FClear.3 mph60%29.77 "Hg4 mi
1:00 AM48 °FPassing clouds.2 mph75%29.79 "Hg3 mi
12:00 AM49 °FPassing clouds.2 mph75%29.80 "Hg2 mi
10:00 PM
Fri, Apr 24
52 °FOvercast.1 mph72%29.82 "Hg4 mi
9:00 PM57 °FPassing clouds.1 mph48%29.81 "Hg9 mi
8:00 PM62 °FPartly sunny.2 mph41%29.81 "Hg9 mi
7:00 PM64 °FPartly sunny.3 mph39%29.82 "Hg8 mi
6:00 PM65 °FPartly sunny.5 mph40%29.82 "Hg7 mi
4:00 PM62 °FScattered clouds.5 mph50%29.85 "Hg7 mi
3:00 PM61 °FScattered clouds.5 mph54%29.88 "Hg6 mi
2:00 PM60 °FPassing clouds.6 mph59%29.89 "Hg5 mi
Weather by CustomWeather, © 2015

See weather overviewHow to use our weather pages